DateTimeUTC,F1_A11,F1_S11,BsB_S11,BsG_S11,BsR_S11,BbsB_S11,BbsG_S11,BbsR_S11,BaB_A11,BaG_A11,BaR_A11,Tu_S11,T_S11,Uu_S11,U_S11,P_S11,T1_A11
2021-08-07T06:00:00Z,00000200,21000000,,,,,,,0000.17,-000.02,-000.00,18.0,24.8,00.3,00.2,0665.2,30.9
2021-08-07T06:01:00Z,00000200,21000000,,,,,,,-000.19,0000.09,-000.38,17.9,24.9,00.3,00.2,0665.2,30.9
2021-08-07T06:02:00Z,00000200,21000000,,,,,,,0000.39,-000.02,0000.50,17.9,24.9,00.3,00.2,0665.2,30.9
2021-08-07T06:03:00Z,00000200,61000000,,,,,,,0000.20,0000.32,-000.03,17.9,24.9,00.3,00.2,0665.2,30.9
2021-08-07T06:04:00Z,00000200,41000000,0001.73,0000.78,0000.48,0000.23,0000.27,-000.02,0000.60,0000.62,0000.61,17.9,24.6,00.6,00.4,0666.2,30.9
2021-08-07T06:05:00Z,00000200,01000000,0001.37,0000.86,0000.74,0000.19,0000.05,0000.39,0000.71,0000.72,0000.83,17.8,24.5,00.7,00.5,0666.3,30.9
2021-08-07T06:06:00Z,00000200,01000000,0001.96,0000.75,0000.68,0000.15,0000.30,0000.29,0000.16,-000.01,-000.27,17.8,24.4,00.8,00.5,0666.2,30.9
2021-08-07T06:07:00Z,00000200,01000000,0001.26,0000.89,0000.63,-000.43,0000.35,0000.15,0000.38,0000.70,0000.44,17.7,24.4,00.8,00.5,0666.2,30.9
2021-08-07T06:08:00Z,00000200,01000000,0001.41,0000.95,0000.11,0000.46,0000.40,0000.11,0000.92,0000.15,0000.60,17.7,24.4,00.8,00.5,0666.2,30.9
2021-08-07T06:09:00Z,00000200,01000000,0001.48,0000.82,0000.39,-000.06,0000.13,0000.43,0000.36,0000.68,0000.21,17.8,24.4,00.8,00.5,0666.2,30.9
2021-08-07T06:10:00Z,00000200,01000000,0000.55,0000.59,0000.08,0000.28,0000.16,0000.21,0000.13,0000.34,0000.22,17.9,24.4,00.9,00.6,0666.1,30.9
2021-08-07T06:11:00Z,00000200,01000000,0001.09,0000.68,0000.68,0000.41,-000.14,0000.55,0000.62,0000.48,0000.25,18.0,24.5,00.9,00.6,0666.1,30.9
2021-08-07T06:12:00Z,00000200,01000000,0001.72,0000.64,0000.37,0000.05,0000.43,0000.31,0000.26,0000.05,0000.26,18.1,24.5,01.0,00.6,0666.1,31.0
2021-08-07T06:13:00Z,00000200,01000000,0001.58,0000.28,0000.20,0000.12,0000.23,-000.02,0000.50,0000.82,0000.20,18.2,24.5,01.0,00.7,0666.1,31.0
2021-08-07T06:14:00Z,00000200,01000000,0001.05,0000.37,0000.62,0000.14,0000.34,0000.31,0000.16,0000.36,0000.47,18.3,24.6,01.0,00.7,0666.1,31.0
2021-08-07T06:15:00Z,00000200,01000000,0001.29,0000.19,0000.31,0000.60,0000.35,0000.22,0000.12,-000.16,0000.29,18.3,24.6,01.0,00.7,0666.1,30.9
2021-08-07T06:16:00Z,00000200,01000000,0001.07,0000.47,0000.24,0000.81,0000.05,0000.22,0000.29,0000.28,-000.27,18.3,24.6,01.0,00.7,0666.1,31.0
2021-08-07T06:17:00Z,00000200,01000000,0001.55,0000.27,0000.19,0000.03,0000.24,-000.14,0000.29,0000.02,0000.13,18.2,24.6,01.1,00.7,0666.1,30.9
2021-08-07T06:18:00Z,00000200,01000000,0001.22,0000.59,0000.32,0000.70,0000.17,0000.04,0000.20,0000.27,0000.37,18.1,24.5,01.2,00.8,0666.1,30.9
2021-08-07T06:19:00Z,00000200,01000000,0001.48,0000.78,0000.71,0000.23,0000.47,0000.25,0000.09,0000.10,0000.34,18.1,24.5,01.1,00.8,0666.1,30.9
2021-08-07T06:20:00Z,00000200,01000000,0001.02,0000.12,0000.43,0000.39,0000.31,0000.29,0000.49,0000.46,0000.10,18.0,24.5,01.2,00.8,0666.1,30.9
2021-08-07T06:21:00Z,00000200,01000000,0000.86,0000.60,0000.09,0000.58,-000.25,0000.24,0000.62,0000.69,0000.43,17.9,24.4,01.2,00.8,0666.1,30.9
2021-08-07T06:22:00Z,00000200,01000000,0001.41,0000.55,0000.09,0000.34,-000.11,0000.32,0000.11,0000.28,0000.18,17.9,24.4,01.2,00.8,0666.1,30.9
2021-08-07T06:23:00Z,00000200,01000000,0001.16,0000.53,0000.57,-000.05,0000.19,0000.31,0000.48,0000.53,0000.55,17.9,24.4,01.2,00.8,0666.1,30.9
2021-08-07T06:24:00Z,00000200,01000000,0001.15,0000.39,0000.66,0000.23,-000.01,0000.21,0000.74,0000.14,0000.09,17.9,24.4,01.2,00.8,0666.1,30.9
2021-08-07T06:25:00Z,00000200,01000000,0001.32,0000.54,0000.46,0000.38,0000.18,0000.11,0000.13,-000.20,0000.19,18.0,24.4,01.2,00.8,0666.1,30.9
2021-08-07T06:26:00Z,00000200,01000000,0001.01,0000.81,0000.19,0000.57,0000.19,0000.04,0000.19,0000.64,0000.47,18.1,24.5,01.3,00.9,0666.1,30.9
2021-08-07T06:27:00Z,00000200,01000000,0001.26,0000.58,0000.56,-000.00,0000.24,0000.13,0000.39,0000.29,-000.01,18.2,24.5,01.3,00.9,0666.0,30.9
2021-08-07T06:28:00Z,00000200,01000000,0002.25,0000.70,0000.50,0000.67,0000.04,0000.20,-000.01,0000.25,0000.03,18.3,24.6,01.3,00.9,0666.0,31.0
2021-08-07T06:29:00Z,00000200,01000000,0000.92,0000.37,0000.33,0000.26,0000.12,-000.03,0000.36,0000.42,0000.31,18.4,24.6,01.3,00.9,0666.0,31.0
2021-08-07T06:30:00Z,00000200,01000000,0000.98,0000.52,0000.53,0000.09,0000.18,0000.06,0000.09,-000.25,0000.39,18.4,24.6,01.4,00.9,0666.0,30.9
2021-08-07T06:31:00Z,00000200,01000000,0001.22,0000.51,0000.28,-000.00,0000.18,0000.34,0000.42,0000.63,-000.12,18.3,24.6,01.4,00.9,0666.0,30.9
2021-08-07T06:32:00Z,00000200,01000000,0000.35,0000.30,0000.59,0000.20,0000.23,-000.11,-000.16,-000.06,-000.03,18.2,24.6,01.4,00.9,0666.0,30.9
2021-08-07T06:33:00Z,00000200,01000000,0001.48,0000.61,0000.06,0000.41,0000.20,0000.34,0000.45,0000.36,0000.29,18.1,24.5,01.5,01.0,0666.0,30.9
2021-08-07T06:34:00Z,00000200,01000000,0002.02,0000.65,0000.64,0000.55,-000.10,0000.20,0000.85,0000.74,0001.11,18.1,24.5,01.8,01.2,0666.0,30.9
2021-08-07T06:35:00Z,00000200,01000000,0000.81,0000.54,0000.16,0000.64,0000.10,0000.52,0000.28,0000.18,-000.39,18.0,24.5,01.7,01.2,0666.0,30.9
2021-08-07T06:36:00Z,00000200,01000000,0000.80,0000.55,0000.17,0000.30,0000.12,0000.15,0000.13,-000.16,0000.45,18.0,24.5,01.6,01.1,0666.0,30.9
2021-08-07T06:37:00Z,00000200,01000000,0001.34,0000.04,0000.09,0000.11,0000.09,0000.24,0000.57,0000.65,-000.00,17.9,24.4,01.7,01.1,0666.0,30.9
2021-08-07T06:38:00Z,00000200,01000000,0001.21,0000.33,0000.21,0000.04,0000.10,0000.23,0000.36,0000.64,0000.71,17.9,24.4,01.6,01.1,0666.0,30.9
2021-08-07T06:39:00Z,00000200,01000000,0001.86,0000.37,0000.21,0000.12,-000.13,0000.20,0000.36,0000.27,0000.03,17.9,24.4,01.7,01.2,0666.0,30.9
2021-08-07T06:40:00Z,00000200,01000000,0000.77,0000.45,0000.34,-000.13,0000.00,0000.17,0000.38,0000.13,0000.27,18.0,24.4,01.8,01.2,0666.0,30.9
2021-08-07T06:41:00Z,00000200,01000000,0000.72,0000.30,0000.40,0000.37,0000.26,-000.19,-000.01,0000.52,0000.14,18.1,24.5,01.7,01.2,0666.0,30.9
2021-08-07T06:42:00Z,00000200,01000000,0001.80,0000.29,0000.22,0000.48,0000.16,-000.05,0000.40,0000.11,0000.21,18.2,24.5,01.8,01.3,0666.0,30.9
2021-08-07T06:43:00Z,00000200,01000000,0000.50,0000.06,0000.31,0000.50,0000.14,0000.35,0000.12,-000.00,-000.08,18.3,24.6,01.8,01.2,0666.0,30.9
2021-08-07T06:44:00Z,00000200,01000000,0000.69,0000.17,0000.31,-000.11,-000.01,0000.30,0000.18,0000.30,0000.28,18.2,24.5,01.8,01.2,0666.0,30.9
2021-08-07T06:45:00Z,00000200,01000000,0000.55,0000.86,0000.68,-000.10,0000.16,0000.51,0003.50,0003.59,0003.46,18.2,24.5,02.5,01.7,0666.0,30.9
2021-08-07T06:46:00Z,00000200,00000000,0000.85,0000.38,0000.46,-000.02,0000.35,0000.17,-002.03,-002.44,-002.24,18.1,24.5,02.6,01.8,0666.0,30.9
2021-08-07T06:47:00Z,00000200,01000000,0000.37,0000.12,0000.11,-000.05,0000.11,0000.31,-000.22,-000.20,-000.53,18.1,24.4,02.0,01.4,0666.0,30.9
2021-08-07T06:48:00Z,00000200,00000000,0000.41,0000.54,0000.21,0000.49,0000.15,0000.09,-000.03,-000.18,0000.09,18.0,24.4,02.0,01.3,0666.0,30.9
2021-08-07T06:49:00Z,00000200,00000000,0000.56,0000.51,0000.27,0000.20,-000.07,0000.31,0000.02,0000.43,-000.23,17.9,24.4,01.9,01.3,0666.0,30.9
2021-08-07T06:50:00Z,00000200,00000000,0001.52,0000.25,0000.20,0000.20,0000.26,0000.34,0000.66,0000.18,0000.70,17.9,24.4,02.0,01.4,0666.0,30.9
2021-08-07T06:51:00Z,00000200,00000000,0000.67,0000.22,0000.16,0000.47,0000.17,0000.23,0000.10,0000.11,0000.03,17.8,24.3,02.0,01.3,0666.0,30.9
2021-08-07T06:52:00Z,00000200,00000000,0001.40,0000.25,0000.36,0000.46,0000.04,0000.42,0000.10,0000.31,0000.10,17.8,24.3,01.9,01.3,0666.0,30.9
2021-08-07T06:53:00Z,00000200,00000000,0000.28,0000.27,0000.05,-000.05,-000.03,-000.06,0000.54,0000.41,0000.86,17.8,24.3,02.0,01.4,0665.9,30.9
2021-08-07T06:54:00Z,00000200,00000000,0001.30,0000.48,-000.05,0000.16,0000.18,0000.14,0000.50,0000.32,-000.06,17.8,24.3,02.1,01.4,0665.9,30.9
2021-08-07T06:55:00Z,00000200,00000000,0001.69,-000.07,0000.71,0000.15,0000.43,0000.51,0000.17,0000.37,0000.50,17.9,24.3,02.2,01.5,0665.9,30.9
2021-08-07T06:56:00Z,00000200,00000000,0000.94,0000.47,0000.06,-000.22,0000.20,-000.03,0000.41,0000.43,-000.07,18.0,24.4,02.2,01.5,0665.9,30.9
2021-08-07T06:57:00Z,00000200,40000000,,,,,,,-000.88,-000.73,-000.55,18.1,24.5,02.5,01.7,0665.9,30.9
2021-08-07T06:58:00Z,00000200,60000000,,,,,,,0000.43,0000.26,0000.30,17.9,24.6,01.7,01.1,0664.9,30.9
2021-08-07T06:59:00Z,00000200,20000000,,,,,,,0000.13,-000.02,0000.19,17.8,24.7,01.9,01.2,0664.9,30.9
